• In Czech Republic
  • List of Countries
  • For 7 days
  • Water Temperature
  • Satellite Maps
  • Weather Map
  • Weather Widgets
  • user-avatar
    Login

    Hourly Weather Algiers

    Today, 23 April, Monday

    Time Temperature Precipitation Wind Pressure Humidity
    00:00 +23°C° 0 mm 5 mps 748 mmHg 55%
    01:00 +23°C° 0 mm 5 mps 748 mmHg 51%
    02:00 +22°C° 0 mm 4 mps 748 mmHg 48%
    03:00 +22°C° 0 mm 4 mps 747 mmHg 44%
    04:00 +22°C° 0 mm 4 mps 747 mmHg 44%
    05:00 +22°C° 0 mm 4 mps 748 mmHg 43%
    06:00 +22°C° 0 mm 4 mps 748 mmHg 43%
    07:00 +26°C° 0 mm 4 mps 748 mmHg 38%
    08:00 +28°C° 0 mm 4 mps 748 mmHg 34%
    09:00 +32°C° 0 mm 4 mps 748 mmHg 30%
    10:00 +33°C° 0 mm 4 mps 748 mmHg 27%
    11:00 +34°C° 0 mm 4 mps 748 mmHg 25%
    12:00 +35°C° 0 mm 4 mps 748 mmHg 23%
    13:00 +35°C° 0 mm 5 mps 748 mmHg 24%
    14:00 +35°C° 0 mm 5 mps 747 mmHg 25%
    15:00 +35°C° 0 mm 6 mps 747 mmHg 26%
    16:00 +33°C° 0 mm 6 mps 747 mmHg 33%
    17:00 +30°C° 0 mm 6 mps 747 mmHg 40%
    18:00 +28°C° 0 mm 6 mps 747 mmHg 47%
    19:00 +27°C° 0 mm 6 mps 747 mmHg 44%
    20:00 +26°C° 0 mm 6 mps 747 mmHg 41%
    21:00 +24°C° 0 mm 6 mps 748 mmHg 38%
    22:00 +24°C° 0 mm 6 mps 747 mmHg 36%
    23:00 +24°C° 0 mm 6 mps 747 mmHg 34%

    Tomorrow, 24 April, Tuesday

    Time Temperature Precipitation Wind Pressure Humidity
    00:00 +24°C° 0 mm 6 mps 747 mmHg 31%
    01:00 +23°C° 0.1 mm 6 mps 747 mmHg 34%
    02:00 +23°C° 0.1 mm 5 mps 747 mmHg 38%
    03:00 +22°C° 0.1 mm 5 mps 746 mmHg 41%
    04:00 +22°C° 0.4 mm 5 mps 747 mmHg 45%
    05:00 +21°C° 0.4 mm 4 mps 747 mmHg 49%
    06:00 +21°C° 0.4 mm 4 mps 747 mmHg 53%
    07:00 +25°C° 0.1 mm 5 mps 747 mmHg 47%
    08:00 +28°C° 0.1 mm 5 mps 747 mmHg 41%
    09:00 +30°C° 0.1 mm 6 mps 748 mmHg 35%
    10:00 +32°C° 0 mm 6 mps 748 mmHg 33%
    11:00 +34°C° 0 mm 6 mps 747 mmHg 31%
    12:00 +35°C° 0 mm 6 mps 747 mmHg 29%
    13:00 +35°C° 0 mm 6 mps 747 mmHg 27%
    14:00 +36°C° 0 mm 6 mps 746 mmHg 26%
    15:00 +36°C° 0 mm 6 mps 746 mmHg 25%
    16:00 +34°C° 0 mm 6 mps 746 mmHg 31%
    17:00 +32°C° 0 mm 6 mps 746 mmHg 38%
    18:00 +28°C° 0 mm 7 mps 745 mmHg 45%
    19:00 +27°C° 0.4 mm 6 mps 746 mmHg 52%
    20:00 +26°C° 0.4 mm 5 mps 747 mmHg 58%
    21:00 +23°C° 0.4 mm 5 mps 748 mmHg 65%
    22:00 +23°C° 0.6 mm 4 mps 747 mmHg 67%
    23:00 +24°C° 0.6 mm 3 mps 747 mmHg 68%

    Day after tomorrow, 25 April, Wednesday

    Time Temperature Precipitation Wind Pressure Humidity
    00:00 +23°C° 0.6 mm 2 mps 746 mmHg 70%
    01:00 +22°C° 0.2 mm 3 mps 746 mmHg 69%
    02:00 +22°C° 0.2 mm 3 mps 746 mmHg 67%
    03:00 +21°C° 0.2 mm 4 mps 745 mmHg 66%
    04:00 +21°C° 0.3 mm 4 mps 745 mmHg 66%
    05:00 +21°C° 0.3 mm 3 mps 745 mmHg 66%
    06:00 +21°C° 0.3 mm 3 mps 745 mmHg 66%
    07:00 +22°C° 0.7 mm 3 mps 746 mmHg 63%
    08:00 +24°C° 0.7 mm 3 mps 746 mmHg 60%
    09:00 +25°C° 0.7 mm 3 mps 747 mmHg 57%
    10:00 +26°C° 0.3 mm 4 mps 747 mmHg 56%
    11:00 +26°C° 0.3 mm 4 mps 747 mmHg 55%
    12:00 +27°C° 0.3 mm 5 mps 746 mmHg 53%
    13:00 +27°C° 0.8 mm 6 mps 746 mmHg 55%
    14:00 +26°C° 0.8 mm 6 mps 746 mmHg 57%
    15:00 +26°C° 0.8 mm 6 mps 745 mmHg 59%
    16:00 +24°C° 0.5 mm 6 mps 745 mmHg 62%
    17:00 +24°C° 0.5 mm 6 mps 745 mmHg 65%
    18:00 +23°C° 0.5 mm 5 mps 745 mmHg 69%
    19:00 +22°C° 0.9 mm 5 mps 745 mmHg 73%
    20:00 +21°C° 0.9 mm 4 mps 746 mmHg 78%
    21:00 +20°C° 0.9 mm 3 mps 746 mmHg 83%
    22:00 +19°C° 0.6 mm 3 mps 746 mmHg 87%
    23:00 +19°C° 0.6 mm 3 mps 745 mmHg 90%

    26 April, Thursday

    Time Temperature Precipitation Wind Pressure Humidity
    00:00 +18°C° 0.6 mm 3 mps 745 mmHg 94%
    01:00 +18°C° 0.6 mm 3 mps 745 mmHg 95%
    02:00 +18°C° 0.6 mm 3 mps 745 mmHg 96%
    03:00 +18°C° 0.6 mm 3 mps 744 mmHg 97%
    04:00 +18°C° 0.3 mm 3 mps 744 mmHg 96%
    05:00 +18°C° 0.3 mm 3 mps 744 mmHg 96%
    06:00 +18°C° 0.3 mm 2 mps 744 mmHg 96%
    07:00 +18°C° 0.2 mm 3 mps 744 mmHg 93%
    08:00 +19°C° 0.2 mm 3 mps 744 mmHg 89%
    09:00 +19°C° 0.2 mm 3 mps 744 mmHg 86%
    10:00 +20°C° 0.1 mm 3 mps 744 mmHg 86%
    11:00 +20°C° 0.1 mm 3 mps 743 mmHg 86%
    12:00 +20°C° 0.1 mm 4 mps 743 mmHg 85%
    13:00 +19°C° 0.2 mm 4 mps 743 mmHg 87%
    14:00 +19°C° 0.2 mm 4 mps 743 mmHg 89%
    15:00 +18°C° 0.2 mm 4 mps 743 mmHg 91%
    16:00 +18°C° 0.2 mm 4 mps 743 mmHg 92%
    17:00 +18°C° 0.2 mm 4 mps 743 mmHg 93%
    18:00 +18°C° 0.2 mm 4 mps 743 mmHg 94%
    19:00 +17°C° 0.2 mm 4 mps 744 mmHg 94%
    20:00 +17°C° 0.2 mm 4 mps 744 mmHg 95%
    21:00 +17°C° 0.2 mm 4 mps 745 mmHg 95%
    22:00 +17°C° 0.2 mm 4 mps 744 mmHg 95%
    23:00 +17°C° 0.2 mm 4 mps 744 mmHg 95%

    27 April, Friday

    Time Temperature Precipitation Wind Pressure Humidity
    00:00 +17°C° 0.2 mm 4 mps 744 mmHg 94%
    01:00 +17°C° 0.2 mm 4 mps 744 mmHg 94%
    02:00 +17°C° 0.2 mm 4 mps 744 mmHg 95%
    03:00 +17°C° 0.2 mm 4 mps 744 mmHg 95%
    04:00 +15°C° 0.1 mm 4 mps 744 mmHg 95%
    05:00 +15°C° 0.1 mm 4 mps 744 mmHg 94%
    06:00 +16°C° 0.1 mm 3 mps 744 mmHg 94%
    07:00 +17°C° 0 mm 3 mps 745 mmHg 88%
    08:00 +18°C° 0 mm 4 mps 745 mmHg 81%
    09:00 +19°C° 0 mm 4 mps 745 mmHg 74%
    10:00 +20°C° 0 mm 4 mps 745 mmHg 71%
    11:00 +21°C° 0 mm 5 mps 745 mmHg 67%
    12:00 +22°C° 0 mm 5 mps 745 mmHg 64%
    13:00 +21°C° 0 mm 5 mps 745 mmHg 65%
    14:00 +21°C° 0 mm 5 mps 745 mmHg 66%
    15:00 +21°C° 0 mm 4 mps 744 mmHg 67%
    16:00 +20°C° 0 mm 4 mps 744 mmHg 71%
    17:00 +20°C° 0 mm 3 mps 744 mmHg 75%
    18:00 +19°C° 0 mm 3 mps 744 mmHg 79%
    19:00 +18°C° 0 mm 2 mps 745 mmHg 82%
    20:00 +17°C° 0 mm 2 mps 745 mmHg 86%
    21:00 +16°C° 0 mm 1 mps 745 mmHg 89%
    22:00 +16°C° 0 mm 2 mps 745 mmHg 88%
    23:00 +16°C° 0 mm 2 mps 745 mmHg 87%

    28 April, Saturday

    Time Temperature Precipitation Wind Pressure Humidity
    00:00 +16°C° 0 mm 2 mps 745 mmHg 86%
    01:00 +16°C° 0 mm 2 mps 745 mmHg 83%
    02:00 +16°C° 0 mm 2 mps 744 mmHg 79%
    03:00 +16°C° 0 mm 2 mps 744 mmHg 76%
    04:00 +16°C° 0 mm 2 mps 744 mmHg 74%
    05:00 +17°C° 0 mm 2 mps 744 mmHg 72%
    06:00 +17°C° 0 mm 2 mps 745 mmHg 70%
    07:00 +19°C° 0 mm 2 mps 745 mmHg 63%
    08:00 +21°C° 0 mm 3 mps 745 mmHg 55%
    09:00 +24°C° 0 mm 3 mps 745 mmHg 48%
    10:00 +25°C° 0 mm 3 mps 745 mmHg 47%
    11:00 +26°C° 0 mm 4 mps 745 mmHg 46%
    12:00 +26°C° 0 mm 5 mps 745 mmHg 45%
    13:00 +26°C° 0 mm 5 mps 745 mmHg 48%
    14:00 +25°C° 0 mm 5 mps 745 mmHg 52%
    15:00 +24°C° 0 mm 6 mps 744 mmHg 55%
    16:00 +22°C° 0 mm 5 mps 745 mmHg 61%
    17:00 +21°C° 0 mm 5 mps 745 mmHg 67%
    18:00 +20°C° 0 mm 5 mps 745 mmHg 73%
    19:00 +19°C° 0.6 mm 5 mps 746 mmHg 77%
    20:00 +17°C° 0.6 mm 5 mps 746 mmHg 81%
    21:00 +16°C° 0.6 mm 5 mps 746 mmHg 85%
    22:00 +17°C° 1.4 mm 4 mps 747 mmHg 85%
    23:00 +15°C° 1.4 mm 4 mps 747 mmHg 85%
    Show more